Regional Weather Roundup
Issued by NWS

Home | Current Version | Previous Version | Graphics & Text | Print | Product List | Glossary On
Versions: 1 2 3 4 5 6 7 8 9 10 11 12 13 14 15 16 17 18 19 20 21 22 23 24 25 26 27 28 29 30 31 32 33 34 35 36 37 38 39 40 41 42 43 44 45 46 47 48 49 50
390
ASUS43 KLSX 241207
RWRMO

WEATHER SUMMARY FOR MISSOURI
NATIONAL WEATHER SERVICE SPRINGFIELD MO
700 AM CDT SUN JUL 24 2016

NOTE: "FAIR" INDICATES FEW OR NO CLOUDS BELOW 12,000 FEET WITH NO
       SIGNIFICANT WEATHER AND/OR OBSTRUCTIONS TO VISIBILITY.
       CURRENT SKY AND/OR WEATHER CONDITIONS ARE NOT AVAILABLE FOR
       CHILLICOTHE AND FARMINGTON.

MOZ001>031-035>038-043-044-053-054-241300-
...NORTHERN AND WESTERN MISSOURI...

CITY           SKY/WX    TMP DP  RH WIND       PRES   REMARKS
KANSAS CTY INT MOCLDY    79  71  76 S13       29.89R
6HR MIN TEMP:  76; 6HR MAX TEMP:  84;

KANSAS C DTWN  PTCLDY    85  70  60 SW15G23   29.88R
6HR MIN TEMP:  82; 6HR MAX TEMP:  89;

LEE`S SUMMIT   CLOUDY    81  72  74 SW10      29.92R
6HR MIN TEMP:  80; 6HR MAX TEMP:  87;

ST JOSEPH      PTCLDY    79  73  82 CALM      29.88R
6HR MIN TEMP:  78; 6HR MAX TEMP:  85;

CHILLICOTHE      N/A     80  75  84 S3        29.89R
6HR MIN TEMP:  78; 6HR MAX TEMP:  83;

KIRKSVILLE     LGT RAIN  79  75  87 SW7       29.91R
6HR MIN TEMP:  76; 6HR MAX TEMP:  81;


$$
MOZ066>068-077>081-088>096-101>105-241300-
...SOUTHWEST MISSOURI...

CITY           SKY/WX    TMP DP  RH WIND       PRES   REMARKS
SPRINGFIELD    CLEAR     76  72  87 S6        29.97R
6HR MIN TEMP:  75; 6HR MAX TEMP:  83;

JOPLIN         CLOUDY    80  71  74 S7        29.96R
6HR MIN TEMP:  78; 6HR MAX TEMP:  82;

BRANSON        PTCLDY    75  72  88 CALM      29.98S

$$
MOZ032>034-039>042-045>050-055>058-069>072-241300-
...CENTRAL MISSOURI...

CITY           SKY/WX    TMP DP  RH WIND       PRES   REMARKS
COLUMBIA       PTCLDY    78  74  87 S7        29.93R
6HR MIN TEMP:  77; 6HR MAX TEMP:  81;

JEFFERSON CITY CLEAR     79  73  82 VRB3      29.92R
6HR MIN TEMP:  77; 6HR MAX TEMP:  82;

ROLLA          CLEAR     77  70  79 S8        29.95R
6HR MIN TEMP:  75; 6HR MAX TEMP:  81;

SEDALIA        CLEAR     80  74  81 SW8       29.94R
6HR MIN TEMP:  79; 6HR MAX TEMP:  83;

WHITEMAN AFB   CLOUDY    78  78 100 SW8       29.91R
OSAGE BEACH    CLEAR     76  72  87 CALM      29.95R

$$
MOZ051-052-059>065-241300-
...EAST CENTRAL MISSOURI...

CITY           SKY/WX    TMP DP  RH WIND       PRES   REMARKS
ST LOUIS INTL  MOSUNNY   82  74  76 S6        29.95R
6HR MIN TEMP:  81; 6HR MAX TEMP:  86;

SPIRIT OF STL  SUNNY     77  76  96 CALM      29.92S
6HR MIN TEMP:  76; 6HR MAX TEMP:  82;

ST CHARLES     SUNNY     77  77 100 E3        29.92R FOG
6HR MIN TEMP:  76; 6HR MAX TEMP:  79;


$$
MOZ072>076-082>087-097>100-106>115-241300-
...SOUTH CENTRAL AND SOUTHEAST MISSOURI...

CITY           SKY/WX    TMP DP  RH WIND       PRES   REMARKS
CAPE GIRARDEAU PTSUNNY   78  75  90 CALM      29.96R FOG
6HR MIN TEMP:  75; 6HR MAX TEMP:  78;

FARMINGTON     SUNNY     75  73  93 CALM      29.98S FOG
6HR MIN TEMP:  72; 6HR MAX TEMP:  77;

POPLAR BLUFF   MOSUNNY   77  75  93 S3        29.96R
6HR MIN TEMP:  76; 6HR MAX TEMP:  79;

WEST PLAINS    PTCLDY    74  69  85 SE3       30.00R
6HR MIN TEMP:  72; 6HR MAX TEMP:  77;


$$



USA.gov is the U.S. government's official web portal to all federal, state and local government web resources and services.